Weather in Staryy Pogost

Russia / Tver Oblast     56°42′37″N   36°04′24″E
temp.,
°C
wind,
m/s
gust,
m/s
humid.,
%
clouds,
%
prec.,
mm/h
press.,
hPa
HPBL,
m
10 may, mon
mon1000:00+3nw35760 0.0 102387
03:00+2nnw22790 0.0 102516
06:00+3nnw11745 0.0 102732
09:00+9nne01506 0.0 1028446
12:00+13nnw12414 0.0 10281149
15:00+15nne11361 0.0 10271486
18:00+14e11405 0.0 10271138
21:00+8ese22575 0.0 102911
11 may, tue
tue1100:00+6se116920 0.0 102910
03:00+5ese117351 0.0 103010
06:00+6e227370 0.0 103042
09:00+12ene345486 0.0 1030452
12:00+16ene454296 0.0 1029987
15:00+18ene4540100 0.0 10281128
18:00+16ene4755100 0.0 1027432
21:00+11ene367647 0.0 102894
12 may, wed
wed1200:00+9e35875 0.0 102888
03:00+9e34940 0.0 102871
06:00+10e259514 0.0 1028137
09:00+16ene467670 0.0 1027519
12:00+20ene68615 0.0 10241212
15:00+21e71261100 1.3 10221734
18:00+16e7148551 2.3 1020715
21:00+14ese6148853 2.5 1020855
13 may, thu
thu1300:00+9sse48932 0.0 1022354
03:00+6ese249849 0.0 1023100
06:00+8e399188 0.0 1022269
09:00+14ese5975100 0.0 1020664
12:00+17sse5863100 0.0 10191319
15:00+17sse577094 0.9 10181303
18:00+17sse367098 0.5 1018890
21:00+12sse2286100 0.6 101815
14 may, fri
fri1400:00+10sse22900 0.0 101911
03:00+10ese22935 0.0 101922
06:00+11ese3694100 0.0 1019157
09:00+16se4777100 0.0 1018472
12:00+21se585499 0.0 10161750
15:00+23se575061 0.0 10142132
18:00+21se51167100 0.4 1013523
21:00+17se51387100 4.3 1012402